Home > Weather > Lynchburg > Past weeks

Flag for USA Past Weather in Lynchburg, Virginia, USA — Yesterday and Last 2 Weeks

Now
91 °F

Passing clouds.


Feels Like: 98 °F
Forecast: 66 / 88 °F
Wind: 5 mph from Southwest

Location: Lynchburg Regional Airport

Current Time: Aug 25, 2016 at 6:08:31 PM

Latest Report: Aug 25, 2016 at 4:54 PM


Visibility: 10 mi

Pressure: 30.06 "Hg

Humidity: 54%

Dew Point: 72 °F

Location of LynchburgLocation

Past Weather in Lynchburg — Graph

°F

Lynchburg Temperature Yesterday

Maximum temperature yesterday: 83 °F (at 2:54 PM)
Minimum temperature yesterday: 61 °F (at 5:54 AM)
Average temperature yesterday: 73 °F

High & Low Weather Summary for the Past Weeks

 TemperatureHumidityPressure
High92 °F (Aug 14, 3:54 PM)100% (Aug 11, 3:54 AM)30.34 "Hg (Aug 11, 3:54 AM)
Low58 °F (Aug 22, 6:54 AM)40% (Aug 22, 3:54 PM)29.81 "Hg (Aug 21, 4:54 AM)
Average77 °F78%30.09 "Hg
* Reported Aug 10 4:54 PM — Aug 25 4:54 PM, Lynchburg, Weather by CustomWeather, © 2016

Note: Actual official high and low records may vary slightly from our data, if they occured in-between our weather recording intervals... More about our weather records

Advertising

Lynchburg Weather History for the Previous 24 Hours

Scroll right to see more
 ConditionsComfort  
Time TempWeatherWind HumidityBarometerVisibility
4:54 PM
Thu, Aug 25
91 °FPassing clouds.5 mph54%30.06 "Hg10 mi
3:54 PM89 °FScattered clouds.7 mph55%30.06 "Hg10 mi
2:54 PM91 °FPassing clouds.7 mph52%30.07 "Hg10 mi
1:54 PM89 °FScattered clouds.6 mph57%30.09 "Hg10 mi
12:54 PM87 °FSunny.3 mph59%30.11 "Hg10 mi
11:54 AM84 °FSunny.3 mph65%30.12 "Hg10 mi
10:54 AM81 °FScattered clouds.8 mph67%30.14 "Hg10 mi
9:54 AM76 °FSunny.8 mph77%30.15 "Hg10 mi
8:54 AM70 °FSunny.7 mph87%30.15 "Hg10 mi
7:54 AM67 °FSunny.6 mph97%30.16 "Hg10 mi
6:54 AM67 °FClear.3 mph93%30.16 "Hg10 mi
5:54 AM66 °FClear.5 mph96%30.15 "Hg10 mi
4:54 AM67 °FClear.3 mph93%30.14 "Hg10 mi
3:54 AM68 °FClear.No wind93%30.16 "Hg10 mi
2:54 AM70 °FPassing clouds.No wind87%30.17 "Hg10 mi
1:54 AM71 °FClear.6 mph81%30.17 "Hg10 mi
12:54 AM71 °FClear.6 mph84%30.19 "Hg10 mi
11:54 PM
Wed, Aug 24
73 °FMostly cloudy.6 mph81%30.19 "Hg10 mi
10:54 PM73 °FPartly cloudy.5 mph81%30.19 "Hg10 mi
9:54 PM73 °FPassing clouds.3 mph81%30.20 "Hg10 mi
8:54 PM72 °FScattered clouds.3 mph84%30.20 "Hg10 mi
7:54 PM75 °FPassing clouds.5 mph76%30.19 "Hg10 mi
6:54 PM79 °FSunny.8 mph67%30.19 "Hg10 mi
Weather by CustomWeather, © 2016

See weather overviewHow to use our weather pages